Regional Weather Roundup
Issued by NWS Goodland, KS

Home | Current Version | Previous Version | Graphics & Text | Print | Product List | Glossary On
Versions: 1 2 3 4 5 6 7 8 9 10 11 12 13 14 15 16 17 18 19 20 21 22 23 24 25 26 27 28 29 30 31 32 33 34 35 36 37 38 39 40 41 42 43 44 45 46 47 48 49 50
000
ASUS43 KGLD 212159
RWRGLD

GOODLAND FORECAST AREA HOURLY WEATHER ROUNDUP
NATIONAL WEATHER SERVICE GOODLAND KS
300 PM MST TUE FEB 21 2017

...OFFICIAL OBSERVATIONS...

CITY           SKY/WX    TMP DP  RH WIND       PRES   REMARKS
GOODLAND KS    SUNNY     77  17  10 VRB6      29.93F
HILL CITY KS   SUNNY     81  27  14 N10       29.88F
IMPERIAL NEB   SUNNY     77  15   9 W17G30    29.86F
MCCOOK NEB     SUNNY     80  26  13 NW14G20   29.85F
AKRON CO       SUNNY     72  11   9 W25G39    29.94F
BURLINGTON CO  SUNNY     77  19  11 NW7       29.96F
LIMON CO       SUNNY     73   5   7 W14G23    30.00F
$$

...UNOFFICIAL OBSERVATIONS...

CITY           SKY/WX    TMP DP  RH WIND       PRES   REMARKS
LENORA KS        N/A     77  32  19 W6          N/A
NORTON KS      SUNNY     79  12   8 W15G21    29.86
SHARON SPRINGS   N/A     77  29  17 S12         N/A
TRENTON NEB      N/A     77  32  19 NW5         N/A
KIT CARSON CO    N/A     77  24  14 MISG        N/A
YUMA CO        FAIR      73  18  12 W22G29    29.93F
$$




USA.gov is the U.S. government's official web portal to all federal, state and local government web resources and services.